| time (UTC) | temp F | wind direction | speed MPH | gust MPH | rain 1hr in | rain 24hr in | rain mn in | humidity % | barometer mb |
| 20260505090007 | 67 | 207 | 4.0 | 10.0 | 0.00 | 0.00 | 0.00 | 48 | 1009.3 |
| 20260505085509 | 67 | 273 | 4.0 | 10.0 | 0.00 | 0.00 | 0.00 | 47 | 1009.3 |
| 20260505085007 | 67 | 241 | 4.0 | 9.0 | 0.00 | 0.00 | 0.00 | 48 | 1009.6 |
| 20260505084521 | 67 | 275 | 2.0 | 9.0 | 0.00 | 0.00 | 0.00 | 49 | 1009.4 |
| 20260505084004 | 67 | 225 | 4.0 | 9.0 | 0.00 | 0.00 | 0.00 | 49 | 1009.4 |
| 20260505083503 | 68 | 257 | 4.0 | 8.0 | 0.00 | 0.00 | 0.00 | 49 | 1009.6 |
| 20260505083005 | 68 | 241 | 1.0 | 8.0 | 0.00 | 0.00 | 0.00 | 49 | 1009.6 |
| 20260505082503 | 68 | 292 | 3.0 | 10.0 | 0.00 | 0.00 | 0.00 | 49 | 1009.7 |
| 20260505082003 | 68 | 254 | 3.0 | 8.0 | 0.00 | 0.00 | 0.00 | 48 | 1009.8 |
| 20260505081501 | 68 | 195 | 3.0 | 8.0 | 0.00 | 0.00 | 0.00 | 47 | 1009.8 |
| 20260505081002 | 68 | 281 | 2.0 | 6.0 | 0.00 | 0.00 | 0.00 | 47 | 1009.9 |
| 20260505080503 | 68 | 275 | 2.0 | 10.0 | 0.00 | 0.00 | 0.00 | 46 | 1010.0 |
| 20260505080002 | 68 | 213 | 3.0 | 10.0 | 0.00 | 0.00 | 0.00 | 47 | 1010.0 |
| 20260505075600 | 68 | 221 | 2.0 | 7.0 | 0.00 | 0.00 | 0.00 | 47 | 1010.0 |
| 20260505075059 | 68 | 258 | 2.0 | 7.0 | 0.00 | 0.00 | 0.00 | 47 | 1009.9 |
| 20260505074559 | 69 | 238 | 2.0 | 6.0 | 0.00 | 0.00 | 0.00 | 44 | 1010.0 |
| 20260505074057 | 69 | 233 | 2.0 | 6.0 | 0.00 | 0.00 | 0.00 | 41 | 1010.0 |
| 20260505073557 | 69 | 240 | 0.0 | 5.0 | 0.00 | 0.00 | 0.00 | 39 | 1009.9 |
| 20260505073057 | 69 | 231 | 2.0 | 5.0 | 0.00 | 0.00 | 0.00 | 39 | 1009.9 |
| 20260505072600 | 69 | 238 | 1.0 | 6.0 | 0.00 | 0.00 | 0.00 | 37 | 1009.6 |
| 20260505072056 | 69 | 267 | 1.0 | 6.0 | 0.00 | 0.00 | 0.00 | 36 | 1009.7 |
| 20260505071559 | 69 | 256 | 1.0 | 6.0 | 0.00 | 0.00 | 0.00 | 36 | 1009.7 |
| 20260505071053 | 70 | 253 | 2.0 | 7.0 | 0.00 | 0.00 | 0.00 | 35 | 1009.6 |
| 20260505070552 | 70 | 280 | 3.0 | 7.0 | 0.00 | 0.00 | 0.00 | 34 | 1009.6 |
| 20260505065551 | 70 | 239 | 2.0 | 8.0 | 0.00 | 0.00 | 0.00 | 33 | 1009.7 |
| 20260505065051 | 70 | 239 | 0.0 | 5.0 | 0.00 | 0.00 | 0.00 | 35 | 1009.6 |
| 20260505064555 | 70 | 240 | 0.0 | 5.0 | 0.00 | 0.00 | 0.00 | 34 | 1009.6 |
| 20260505064049 | 70 | 231 | 0.0 | 4.0 | 0.00 | 0.00 | 0.00 | 35 | 1009.7 |
| 20260505063550 | 70 | 261 | 1.0 | 4.0 | 0.00 | 0.00 | 0.00 | 34 | 1009.4 |
| 20260505063049 | 70 | 268 | 1.0 | 5.0 | 0.00 | 0.00 | 0.00 | 35 | 1009.5 |
| 20260505062549 | 70 | 255 | 1.0 | 7.0 | 0.00 | 0.00 | 0.00 | 35 | 1009.6 |
| 20260505062052 | 70 | 290 | 3.0 | 6.0 | 0.00 | 0.00 | 0.00 | 36 | 1009.5 |
| 20260505061610 | 70 | 261 | 0.0 | 5.0 | 0.00 | 0.00 | 0.00 | 38 | 1009.5 |
| 20260505061047 | 70 | 261 | 2.0 | 6.0 | 0.00 | 0.00 | 0.00 | 39 | 1009.4 |
| 20260505060547 | 70 | 259 | 2.0 | 5.0 | 0.00 | 0.00 | 0.00 | 39 | 1009.4 |
| 20260505060053 | 71 | 242 | 0.0 | 3.0 | 0.00 | 0.00 | 0.00 | 39 | 1009.3 |
| 20260505055550 | 71 | 201 | 1.0 | 3.0 | 0.00 | 0.00 | 0.00 | 39 | 1009.2 |
| 20260505055047 | 71 | 225 | 1.0 | 4.0 | 0.00 | 0.00 | 0.00 | 39 | 1009.1 |
| 20260505054549 | 71 | 255 | 1.0 | 4.0 | 0.00 | 0.00 | 0.00 | 39 | 1009.0 |
| 20260505054045 | 71 | 252 | 1.0 | 7.0 | 0.00 | 0.00 | 0.00 | 39 | 1009.2 |
| 20260505053545 | 71 | 223 | 2.0 | 7.0 | 0.00 | 0.00 | 0.00 | 39 | 1009.2 |
| 20260505053045 | 71 | 231 | 1.0 | 3.0 | 0.00 | 0.00 | 0.00 | 39 | 1009.3 |
| 20260505052549 | 71 | 198 | 1.0 | 4.0 | 0.00 | 0.00 | 0.00 | 39 | 1009.4 |
| 20260505052045 | 71 | 227 | 0.0 | 4.0 | 0.00 | 0.00 | 0.00 | 39 | 1009.2 |
| 20260505051544 | 71 | 272 | 2.0 | 5.0 | 0.00 | 0.00 | 0.00 | 39 | 1009.2 |
| 20260505051045 | 71 | 293 | 1.0 | 5.0 | 0.00 | 0.00 | 0.00 | 39 | 1009.3 |
| 20260505050543 | 71 | 297 | 2.0 | 5.0 | 0.00 | 0.00 | 0.00 | 39 | 1009.5 |
| 20260505041540 | 71 | 262 | 1.0 | 3.0 | 0.00 | 0.00 | 0.00 | 41 | 1009.4 |
| 20260505041044 | 71 | 225 | 1.0 | 5.0 | 0.00 | 0.00 | 0.00 | 41 | 1009.4 |
| 20260505040539 | 71 | 260 | 1.0 | 5.0 | 0.00 | 0.00 | 0.00 | 41 | 1009.3 |
| 20260505040055 | 72 | 275 | 0.0 | 5.0 | 0.00 | 0.00 | 0.00 | 41 | 1009.3 |
| 20260505035542 | 72 | 282 | 2.0 | 7.0 | 0.00 | 0.00 | 0.00 | 41 | 1009.4 |
| 20260505035040 | 72 | 234 | 4.0 | 7.0 | 0.00 | 0.00 | 0.00 | 41 | 1009.3 |
| 20260505034542 | 72 | 250 | 3.0 | 8.0 | 0.00 | 0.00 | 0.00 | 42 | 1009.3 |
| 20260505034037 | 72 | 275 | 2.0 | 6.0 | 0.00 | 0.00 | 0.00 | 42 | 1009.2 |
| 20260505033537 | 72 | 241 | 2.0 | 5.0 | 0.00 | 0.00 | 0.00 | 41 | 1009.2 |
| 20260505033037 | 72 | 279 | 1.0 | 5.0 | 0.00 | 0.00 | 0.00 | 41 | 1009.1 |
| 20260505032537 | 72 | 300 | 1.0 | 5.0 | 0.00 | 0.00 | 0.00 | 41 | 1008.8 |
| 20260505032037 | 72 | 251 | 0.0 | 3.0 | 0.00 | 0.00 | 0.00 | 40 | 1008.8 |
| 20260505031546 | 72 | 292 | 0.0 | 3.0 | 0.00 | 0.00 | 0.00 | 40 | 1008.6 |
| 20260505031036 | 72 | 266 | 2.0 | 3.0 | 0.00 | 0.00 | 0.00 | 40 | 1008.7 |
| 20260505030536 | 72 | 281 | 1.0 | 5.0 | 0.00 | 0.00 | 0.00 | 39 | 1008.6 |
| 20260505030040 | 72 | 265 | 1.0 | 5.0 | 0.00 | 0.00 | 0.00 | 39 | 1008.6 |
| 20260505025536 | 72 | 294 | 1.0 | 4.0 | 0.00 | 0.00 | 0.00 | 38 | 1008.6 |
| 20260505025038 | 72 | 271 | 0.0 | 4.0 | 0.00 | 0.00 | 0.00 | 38 | 1008.5 |
| 20260505024537 | 72 | 279 | 1.0 | 5.0 | 0.00 | 0.00 | 0.00 | 37 | 1008.4 |
| 20260505024035 | 72 | 250 | 2.0 | 5.0 | 0.00 | 0.00 | 0.00 | 36 | 1008.5 |
| 20260505023535 | 72 | 264 | 1.0 | 4.0 | 0.00 | 0.00 | 0.00 | 36 | 1008.5 |
| 20260505023035 | 72 | 290 | 2.0 | 5.0 | 0.00 | 0.00 | 0.00 | 36 | 1008.6 |
| 20260505022535 | 73 | 240 | 2.0 | 6.0 | 0.00 | 0.00 | 0.00 | 35 | 1008.6 |
| 20260505022034 | 73 | 259 | 0.0 | 6.0 | 0.00 | 0.00 | 0.00 | 35 | 1008.6 |
| 20260505021536 | 73 | 261 | 1.0 | 4.0 | 0.00 | 0.00 | 0.00 | 34 | 1008.6 |
| 20260505021034 | 73 | 226 | 1.0 | 5.0 | 0.00 | 0.00 | 0.00 | 34 | 1008.4 |
| 20260505020534 | 73 | 257 | 1.0 | 5.0 | 0.00 | 0.00 | 0.00 | 34 | 1008.4 |
| 20260505020040 | 73 | 279 | 1.0 | 5.0 | 0.00 | 0.00 | 0.00 | 34 | 1008.3 |
| 20260505015534 | 73 | 286 | 1.0 | 5.0 | 0.00 | 0.00 | 0.00 | 34 | 1008.3 |
| 20260505015034 | 73 | 186 | 1.0 | 6.0 | 0.00 | 0.00 | 0.00 | 34 | 1008.3 |
| 20260505014536 | 73 | 241 | 2.0 | 6.0 | 0.00 | 0.00 | 0.00 | 34 | 1008.4 |
| 20260505014034 | 73 | 229 | 2.0 | 7.0 | 0.00 | 0.00 | 0.00 | 33 | 1008.4 |
| 20260505013532 | 74 | 270 | 2.0 | 6.0 | 0.00 | 0.00 | 0.00 | 33 | 1008.5 |
| 20260505013033 | 74 | 278 | 1.0 | 5.0 | 0.00 | 0.00 | 0.00 | 33 | 1008.4 |
| 20260505012533 | 74 | 296 | 1.0 | 5.0 | 0.00 | 0.00 | 0.00 | 33 | 1008.3 |
| 20260505012035 | 74 | 286 | 1.0 | 6.0 | 0.00 | 0.00 | 0.00 | 34 | 1008.2 |
| 20260505011534 | 74 | 216 | 0.0 | 6.0 | 0.00 | 0.00 | 0.00 | 33 | 1008.3 |
| 20260505011032 | 74 | 284 | 2.0 | 7.0 | 0.00 | 0.00 | 0.00 | 34 | 1008.4 |
| 20260505010535 | 74 | 263 | 2.0 | 8.0 | 0.00 | 0.00 | 0.00 | 34 | 1008.5 |
| 20260505010033 | 74 | 267 | 3.0 | 8.0 | 0.00 | 0.00 | 0.00 | 34 | 1008.4 |
| 20260505005532 | 74 | 281 | 1.0 | 5.0 | 0.00 | 0.00 | 0.00 | 34 | 1008.4 |
| 20260505005031 | 74 | 198 | 2.0 | 5.0 | 0.00 | 0.00 | 0.00 | 33 | 1008.4 |
| 20260505004532 | 74 | 189 | 1.0 | 6.0 | 0.00 | 0.00 | 0.00 | 33 | 1008.5 |
| 20260505004030 | 74 | 185 | 1.0 | 8.0 | 0.00 | 0.00 | 0.00 | 34 | 1008.4 |
| 20260505003530 | 74 | 241 | 1.0 | 6.0 | 0.00 | 0.00 | 0.00 | 33 | 1008.5 |
| 20260505003030 | 74 | 258 | 2.0 | 5.0 | 0.00 | 0.00 | 0.00 | 33 | 1008.5 |
| 20260505002530 | 75 | 228 | 1.0 | 6.0 | 0.00 | 0.00 | 0.00 | 33 | 1008.5 |
| 20260505002030 | 75 | 286 | 3.0 | 6.0 | 0.00 | 0.00 | 0.00 | 33 | 1008.6 |
| 20260505001530 | 75 | 250 | 2.0 | 6.0 | 0.00 | 0.00 | 0.00 | 32 | 1008.6 |
| 20260505001029 | 75 | 222 | 2.0 | 6.0 | 0.00 | 0.00 | 0.00 | 33 | 1008.7 |
| 20260505000529 | 75 | 165 | 0.0 | 6.0 | 0.00 | 0.00 | 0.00 | 33 | 1008.6 |
| 20260505000042 | 75 | 243 | 2.0 | 11.0 | 0.00 | 0.00 | 0.00 | 33 | 1008.6 |
| 20260504235529 | 76 | 317 | 3.0 | 11.0 | 0.00 | 0.00 | 0.00 | 34 | 1008.7 |
| 20260504235029 | 76 | 202 | 1.0 | 8.0 | 0.00 | 0.00 | 0.00 | 34 | 1008.6 |
| 20260504234528 | 76 | 238 | 1.0 | 7.0 | 0.00 | 0.00 | 0.00 | 35 | 1008.6 |
| 20260504234027 | 76 | 236 | 1.0 | 6.0 | 0.00 | 0.00 | 0.00 | 35 | 1008.6 |
| 20260504233527 | 76 | 176 | 1.0 | 7.0 | 0.00 | 0.00 | 0.00 | 36 | 1008.6 |
| 20260504233027 | 76 | 254 | 3.0 | 7.0 | 0.00 | 0.00 | 0.00 | 35 | 1008.5 |
| 20260504232528 | 77 | 290 | 1.0 | 7.0 | 0.00 | 0.00 | 0.00 | 35 | 1008.7 |
| 20260504232027 | 77 | 217 | 2.0 | 7.0 | 0.00 | 0.00 | 0.00 | 35 | 1008.7 |
| 20260504231527 | 77 | 231 | 1.0 | 7.0 | 0.00 | 0.00 | 0.00 | 34 | 1008.6 |
| 20260504231027 | 77 | 229 | 1.0 | 7.0 | 0.00 | 0.00 | 0.00 | 36 | 1008.6 |
| 20260504230527 | 77 | 283 | 2.0 | 7.0 | 0.00 | 0.00 | 0.00 | 35 | 1008.5 |
| 20260504230026 | 77 | 190 | 2.0 | 6.0 | 0.00 | 0.00 | 0.00 | 36 | 1008.6 |
| 20260504225531 | 77 | 265 | 3.0 | 6.0 | 0.00 | 0.00 | 0.00 | 36 | 1008.6 |
| 20260504225026 | 77 | 281 | 2.0 | 7.0 | 0.00 | 0.00 | 0.00 | 35 | 1008.5 |
| 20260504224526 | 77 | 225 | 2.0 | 7.0 | 0.00 | 0.00 | 0.00 | 36 | 1008.7 |
| 20260504224025 | 77 | 189 | 1.0 | 6.0 | 0.00 | 0.00 | 0.00 | 36 | 1008.7 |
| 20260504223525 | 77 | 192 | 2.0 | 7.0 | 0.00 | 0.00 | 0.00 | 35 | 1008.8 |
| 20260504223025 | 76 | 156 | 1.0 | 8.0 | 0.00 | 0.00 | 0.00 | 36 | 1008.9 |
| 20260504222524 | 76 | 294 | 2.0 | 8.0 | 0.00 | 0.00 | 0.00 | 36 | 1008.9 |
| 20260504222024 | 77 | 252 | 3.0 | 7.0 | 0.00 | 0.00 | 0.00 | 35 | 1009.0 |
| 20260504221527 | 77 | 213 | 1.0 | 7.0 | 0.00 | 0.00 | 0.00 | 37 | 1009.0 |
| 20260504221024 | 77 | 186 | 2.0 | 7.0 | 0.00 | 0.00 | 0.00 | 36 | 1009.0 |
| 20260504220524 | 77 | 279 | 1.0 | 8.0 | 0.00 | 0.00 | 0.00 | 36 | 1009.1 |
| 20260504220040 | 76 | 275 | 1.0 | 7.0 | 0.00 | 0.00 | 0.00 | 35 | 1009.2 |
| 20260504215523 | 77 | 182 | 2.0 | 7.0 | 0.00 | 0.00 | 0.00 | 37 | 1009.2 |
| 20260504215026 | 76 | 234 | 2.0 | 7.0 | 0.00 | 0.00 | 0.00 | 37 | 1009.3 |
| 20260504214524 | 76 | 254 | 3.0 | 8.0 | 0.00 | 0.00 | 0.00 | 37 | 1009.3 |
| 20260504214022 | 77 | 232 | 3.0 | 8.0 | 0.00 | 0.00 | 0.00 | 37 | 1009.3 |
| 20260504213524 | 77 | 214 | 2.0 | 6.0 | 0.00 | 0.00 | 0.00 | 39 | 1009.5 |
| 20260504213022 | 76 | 188 | 1.0 | 6.0 | 0.00 | 0.00 | 0.00 | 40 | 1009.7 |
| 20260504212521 | 76 | 198 | 2.0 | 7.0 | 0.00 | 0.00 | 0.00 | 40 | 1009.7 |
| 20260504212024 | 75 | 193 | 2.0 | 9.0 | 0.00 | 0.00 | 0.00 | 40 | 1009.7 |
| 20260504211521 | 75 | 201 | 4.0 | 9.0 | 0.00 | 0.00 | 0.00 | 39 | 1009.8 |
| 20260504211019 | 75 | 244 | 2.0 | 8.0 | 0.00 | 0.00 | 0.00 | 41 | 1009.9 |
| 20260504210519 | 75 | 296 | 1.0 | 7.0 | 0.00 | 0.00 | 0.00 | 41 | 1010.0 |
| 20260504210019 | 74 | 224 | 2.0 | 8.0 | 0.00 | 0.00 | 0.00 | 42 | 1010.0 |
| 20260504205519 | 74 | 180 | 3.0 | 8.0 | 0.00 | 0.00 | 0.00 | 42 | 1010.1 |
| 20260504205019 | 74 | 279 | 2.0 | 5.0 | 0.00 | 0.00 | 0.00 | 42 | 1009.9 |
| 20260504204533 | 74 | 204 | 2.0 | 4.0 | 0.00 | 0.00 | 0.00 | 42 | 1009.9 |
| 20260504204018 | 74 | 202 | 1.0 | 7.0 | 0.00 | 0.00 | 0.00 | 42 | 1010.0 |
| 20260504203518 | 74 | 207 | 2.0 | 9.0 | 0.00 | 0.00 | 0.00 | 41 | 1010.1 |
| 20260504203017 | 74 | 195 | 1.0 | 8.0 | 0.00 | 0.00 | 0.00 | 42 | 1010.2 |
| 20260504202518 | 74 | 224 | 3.0 | 8.0 | 0.00 | 0.00 | 0.00 | 41 | 1010.5 |
| 20260504202017 | 74 | 191 | 2.0 | 6.0 | 0.00 | 0.00 | 0.00 | 41 | 1010.4 |
| 20260504201517 | 74 | 225 | 1.0 | 6.0 | 0.00 | 0.00 | 0.00 | 41 | 1010.4 |
| 20260504201017 | 73 | 270 | 0.0 | 7.0 | 0.00 | 0.00 | 0.00 | 42 | 1010.5 |
| 20260504200517 | 73 | 244 | 3.0 | 7.0 | 0.00 | 0.00 | 0.00 | 41 | 1010.5 |
| 20260504200016 | 72 | 242 | 1.0 | 8.0 | 0.00 | 0.00 | 0.00 | 41 | 1010.5 |
| 20260504195516 | 72 | 271 | 5.0 | 8.0 | 0.00 | 0.00 | 0.00 | 41 | 1010.4 |
| 20260504195015 | 72 | 225 | 1.0 | 7.0 | 0.00 | 0.00 | 0.00 | 40 | 1010.4 |
| 20260504194516 | 72 | 223 | 3.0 | 7.0 | 0.00 | 0.00 | 0.00 | 40 | 1010.6 |
| 20260504194014 | 72 | 267 | 3.0 | 7.0 | 0.00 | 0.00 | 0.00 | 39 | 1010.6 |
| 20260504193515 | 72 | 306 | 4.0 | 7.0 | 0.00 | 0.00 | 0.00 | 39 | 1010.6 |
| 20260504193015 | 72 | 285 | 2.0 | 6.0 | 0.00 | 0.00 | 0.00 | 40 | 1010.2 |
| 20260504192514 | 72 | 273 | 1.0 | 9.0 | 0.00 | 0.00 | 0.00 | 40 | 1010.5 |
| 20260504192013 | 71 | 242 | 4.0 | 9.0 | 0.00 | 0.00 | 0.00 | 40 | 1010.8 |
| 20260504191513 | 71 | 242 | 2.0 | 5.0 | 0.00 | 0.00 | 0.00 | 40 | 1010.4 |
| 20260504191014 | 71 | 198 | 1.0 | 9.0 | 0.00 | 0.00 | 0.00 | 40 | 1009.9 |
| 20260504190516 | 71 | 296 | 3.0 | 9.0 | 0.00 | 0.00 | 0.00 | 41 | 1010.2 |
| 20260504190014 | 71 | 262 | 2.0 | 6.0 | 0.00 | 0.00 | 0.00 | 41 | 1010.1 |
| 20260504185512 | 71 | 294 | 2.0 | 6.0 | 0.00 | 0.00 | 0.00 | 40 | 1010.3 |
| 20260504185016 | 71 | 207 | 1.0 | 8.0 | 0.00 | 0.00 | 0.00 | 40 | 1009.9 |
| 20260504184512 | 71 | 281 | 1.0 | 8.0 | 0.00 | 0.00 | 0.00 | 41 | 1010.2 |
| 20260504184015 | 71 | 258 | 2.0 | 8.0 | 0.00 | 0.00 | 0.00 | 41 | 1010.2 |
| 20260504183512 | 70 | 319 | 3.0 | 8.0 | 0.00 | 0.00 | 0.00 | 42 | 1010.4 |
| 20260504183011 | 70 | 218 | 3.0 | 11.0 | 0.00 | 0.00 | 0.00 | 42 | 1010.3 |
| 20260504182510 | 70 | 301 | 6.0 | 11.0 | 0.00 | 0.00 | 0.00 | 43 | 1010.4 |
| 20260504182010 | 70 | 287 | 6.0 | 11.0 | 0.00 | 0.00 | 0.00 | 43 | 1010.7 |
| 20260504181516 | 70 | 263 | 6.0 | 11.0 | 0.00 | 0.00 | 0.00 | 43 | 1010.6 |
| 20260504181010 | 70 | 245 | 3.0 | 11.0 | 0.00 | 0.00 | 0.00 | 45 | 1010.6 |
| 20260504180510 | 70 | 266 | 5.0 | 9.0 | 0.00 | 0.00 | 0.00 | 43 | 1010.7 |
| 20260504180010 | 70 | 269 | 3.0 | 9.0 | 0.00 | 0.00 | 0.00 | 44 | 1010.5 |
| 20260504175509 | 69 | 281 | 3.0 | 16.0 | 0.00 | 0.00 | 0.00 | 44 | 1010.3 |
| 20260504175011 | 69 | 265 | 4.0 | 16.0 | 0.00 | 0.00 | 0.00 | 45 | 1010.5 |
| 20260504174507 | 69 | 290 | 4.0 | 11.0 | 0.00 | 0.00 | 0.00 | 46 | 1010.5 |
| 20260504174007 | 69 | 281 | 6.0 | 11.0 | 0.00 | 0.00 | 0.00 | 46 | 1010.5 |
| 20260504173505 | 69 | 278 | 4.0 | 10.0 | 0.00 | 0.00 | 0.00 | 47 | 1010.4 |
| 20260504173005 | 69 | 227 | 4.0 | 13.0 | 0.00 | 0.00 | 0.00 | 48 | 1010.3 |
| 20260504172505 | 69 | 228 | 6.0 | 13.0 | 0.00 | 0.00 | 0.00 | 49 | 1010.4 |
| 20260504172008 | 69 | 250 | 6.0 | 12.0 | 0.00 | 0.00 | 0.00 | 50 | 1010.4 |
| 20260504171507 | 69 | 186 | 5.0 | 11.0 | 0.00 | 0.00 | 0.00 | 50 | 1010.1 |
| 20260504171005 | 69 | 232 | 2.0 | 8.0 | 0.00 | 0.00 | 0.00 | 51 | 1009.8 |
| 20260504170501 | 69 | 294 | 4.0 | 9.0 | 0.00 | 0.00 | 0.00 | 50 | 1009.7 |
| 20260504151048 | 68 | 267 | 5.0 | 12.0 | 0.00 | 0.00 | 0.00 | 53 | 1009.7 |
| 20260504150547 | 68 | 254 | 6.0 | 11.0 | 0.00 | 0.00 | 0.00 | 52 | 1009.6 |
| 20260504141034 | 69 | 290 | 2.0 | 7.0 | 0.00 | 0.00 | 0.00 | 46 | 1008.9 |
| 20260504140534 | 69 | 220 | 1.0 | 6.0 | 0.00 | 0.00 | 0.00 | 46 | 1008.8 |
| 20260504130524 | 69 | 298 | 2.0 | 8.0 | 0.00 | 0.00 | 0.00 | 44 | 1008.3 |
| 20260504110511 | 71 | 273 | 0.0 | 3.0 | 0.00 | 0.00 | 0.00 | 39 | 1007.7 |
| 20260504100505 | 72 | 209 | 0.0 | 3.0 | 0.00 | 0.00 | 0.00 | 37 | 1007.6 |